Regional Weather Roundup
Issued by NWS Newport/Morehead, NC

Home | Current Version | Previous Version | Text Only | Print | Product List | Glossary On
Versions: 1 2 3 4 5 6 7 8 9 10 11 12 13 14 15 16 17 18 19 20 21 22 23 24 25 26 27 28 29 30 31 32 33 34 35 36 37 38 39 40 41 42 43 44 45 46 47 48 49 50
000
ASUS42 KMHX 281728
RWRMHX
WEATHER ROUNDUP FOR EASTERN NORTH CAROLINA
NATIONAL WEATHER SERVICE NEWPORT/MOREHEAD CITY NC
1200 PM EST SAT FEB 28 2015

NOTE: "FAIR" INDICATES FEW OR NO CLOUDS BELOW 12,000 FEET
WITH NO SIGNIFICANT WEATHER AND/OR OBSTRUCTIONS TO VISIBILITY

NCZ015>017-031-032-045>047-102-103-281800-
NORTH COAST

CITY           SKY/WX    TMP DP  RH WIND       PRES   REMARKS
EDENTON        PTSUNNY   35  19  51 NE9       30.78F
ELIZABETH CITY PTSUNNY   34  16  47 NE9       30.80F
KITTY HAWK     MOSUNNY   33  21  63 N13G21    30.77S
MANTEO         MOSUNNY   34  21  60 N17G23    30.78F

$$

NCZ045>047-081-094-103-104-281800-
CENTRAL COAST

CITY           SKY/WX    TMP DP  RH WIND       PRES   REMARKS
FRISCO         CLOUDY    35  27  72 N14G29    30.73S
SWANQUARTER      N/A     37 N/A N/A VRB10G20  30.71S

$$

NCZ095-097-098-100-101-281800-
SOUTHERN COAST

CITY           SKY/WX    TMP DP  RH WIND       PRES   REMARKS
BEAUFORT       SUNNY     41  28  60 NE18G30   30.70F
CEDAR ISLAND     N/A     37 N/A N/A N17       30.77S
JACKSONVILLE   SUNNY     44  24  45 N18       30.70F
PINEY ISLAND     N/A    N/A N/A N/A MISG      30.73F
WILMINGTON     SUNNY     45  26  47 N13       30.68F


$$

NCZ011>013-027>030-043-044-078>080-089-090>093-098-281800-
COASTAL PLAIN

CITY           SKY/WX    TMP DP  RH WIND       PRES   REMARKS
AHOSKIE        PTSUNNY   32  10  39 N10       30.81F
CLINTON        SUNNY     39  24  54 N13G20    30.73F
ELIZABETHTOWN  MOSUNNY   42  21  44 NE5       30.70F
GOLDSBORO      CLOUDY    36  25  63 N13G20    30.74
GREENVILLE     MOSUNNY   36  19  51 NE9       30.77F
HAVELOCK       SUNNY     43  23  45 N15G23    30.73F
KENANSVILLE    SUNNY     38  22  52 N13       30.74F
KINSTON        MOSUNNY   36  21  55 N13       30.77S
NEW BERN       MOSUNNY   40  22  48 NE14      30.74F
RICHLANDS      SUNNY     41  21  45 N15G21    30.72F
ROCKY MOUNT    PTSUNNY   33  12  41 N13       30.78F
WASHINGTON     PTSUNNY   35  17  48 NE9       30.77F
WHITEVILLE     SUNNY     42  23  46 NE10      30.69S

$$

AMZ130-135-150-152-154-156-158-170-250-252-270-ANZ085-086-088-633-658-670-281800-
MARINE OBSERVATIONS

STATION/POSITION TIME  TEMP    WIND        PRES    WAVE   SWELL
                       AIR SEA DIR/SP/G            HT/PER HT/PER
                 (UTC) (F)     (DEG/KT/KT) (MB)    (FT/S) (FT/S)
CHESAPEAKE LIGHT 1700   27      10/ 16/ 18 1043.4
64 E VA BEACH    1650   37 50  360/ 17/ 21 1041.4    5/11   3/11
DUCK             1612   29 34   10/ 15/ 18 1041.9
2 E DUCK         1611      34                N/A     6/10   2/11
10 NE DUCK       1652      37                N/A     7/ 6   2/11
OREGON INLET     1612   35 37  350/ 17/ 24 1041.9
HATTERAS CG      1600   35 39   10/ 25/ 29 1040.8
CAPE LOOKOUT     1700   39      20/ 18/ 22 1039.1
BEAUFORT LAB     1700   39 40   20/ 17/ 24 1038.6
27 SE WRIGHTSVLE NOT AVBL
5 SE WRIGHTSVLE  NOT AVBL
225 S CAPE HAT   1650   66 69   50/ 19/ 23 1032.7    9/ 8   3/11
41 SE CHARLESTON 1650   52 65   40/ 27/ 33 1033.9    9/ 8   3/14

$$


USA.gov is the U.S. government's official web portal to all federal, state and local government web resources and services.